Estación Meteorológica Peña el Pijo (Robertgarden) [ 09/29/20 12:07:59 CEST ]

Fecha Hora Presion(HPa) Temp (°C) Humedad % Rocio (°C) Viento ( m/s) Direccion Lluvia 1Hora(mm) Lluvia 24H(mm) LLuvia Total(mm)
2020-Feb-18 01:09:08 1017.600 - - - - N     39.88
2020-Feb-18 02:10:12 1017.400 - - - - N     39.88
2020-Feb-18 03:09:49 1017.100 - - - - N     39.88
2020-Feb-18 04:11:01 1016.900 - - - - N     39.88
2020-Feb-18 05:10:30 1016.700 - - - - N     39.88
2020-Feb-18 06:09:24 1016.600 - - - - N     39.88
2020-Feb-18 07:09:25 1017.200 - - - - N     39.88
2020-Feb-18 08:09:09 1017.600 - - - - N     39.88
2020-Feb-18 09:09:03 1018.100 - - - - N     39.88
2020-Feb-18 10:09:01 1018.400 - - - - N     39.88
2020-Feb-18 11:09:10 1018.400 - - - - N     39.88
2020-Feb-18 12:09:29 1018.400 - - - - N     39.88
2020-Feb-18 13:09:34 1017.900 - - - - N     39.88
2020-Feb-18 14:09:21 1017.400 - - - - N     39.88
2020-Feb-18 15:09:14 1016.800 - - - - N     39.88
2020-Feb-18 16:09:11 1016.300 - - - - N     39.88
2020-Feb-18 17:09:16 1016.200 - - - - N     39.88
2020-Feb-18 18:09:11 1016.300 - - - - N     39.88
2020-Feb-18 19:09:05 1016.800 - - - - N     39.88
2020-Feb-18 20:08:40 1017.200 - - - - N     39.88
2020-Feb-18 21:08:54 1017.400 - - - - N     39.88
2020-Feb-18 22:08:52 1017.300 - - - - N     39.88
2020-Feb-18 23:09:21 1017.700 - - - - N     39.88

Temperatura Máxima:    Temperatura Mínima:
Presión Máxima:1018.400 Hpa    Presión Mínima:1016.200 Hpa


Volver